To NAV CANADA Home Page Login to a new session Search on AWWS site Feedback and Comments Disclaimer Vers la page française équivalente Tips FAQ What's new on the site To the Forecasts and Observations / NOTAM section To "File a Flight Plan" website Publications and other links Update of the User's profile FIC Telephone Numbers My Weather Data Folder Route Weather Data Regional Weather Data Local Weather Data To the Forecasts and Observations / NOTAM section
Request Generated 02/24/2017 at 03:36:36 UTC . Weather information available at that time is displayed.

METAR/TAF

NAIN/NL    

LWIS CYDP 240300Z AUTO 01007KT M14/M19 A2979=
LWIS CYDP 240200Z AUTO 01004KT M13/M17 A2980=
LWIS CYDP 240100Z AUTO 03003KT 020V090 M13/M16 A2979=

*** REMARK        : Forecast period has ended; this was the last TAF issued
*** REMARQUE : La période de prévision est échue; ceci était le dernier TAF qui a été émis
TAF CYDP 231938Z 2320/2324 VRB03KT P6SM -SN SCT020 BKN110 TEMPO
2320/2324 4SM -SN OVC020
RMK NXT FCST WILL BE ISSUED AT 241045Z=
Your time UTC time
Weather data provided by Environment Canada and NAV CANADA